TimePST,TemperatureF,Dew PointF,Humidity,Sea Level PressureIn,VisibilityMPH,Wind Direction,Wind SpeedMPH,Gust SpeedMPH,PrecipitationIn,Events,Conditions,WindDirDegrees,DateUTC
12:53 AM,28.0,17.1,63,30.18,10.0,Calm,Calm,-,N/A,,Clear,0,2014-01-20 08:53:00
1:53 AM,26.1,18.0,71,30.36,10.0,SSE,5.8,-,N/A,,Clear,150,2014-01-20 09:53:00
2:53 AM,27.0,18.0,69,30.37,10.0,SSE,8.1,-,N/A,,Clear,150,2014-01-20 10:53:00
3:53 AM,26.1,19.9,78,30.40,10.0,SSE,8.1,-,N/A,,Clear,150,2014-01-20 11:53:00
4:53 AM,26.1,19.0,75,30.43,10.0,SE,6.9,-,N/A,,Clear,140,2014-01-20 12:53:00
5:53 AM,25.0,19.0,78,30.43,10.0,SE,8.1,-,N/A,,Clear,140,2014-01-20 13:53:00
6:53 AM,24.1,19.0,81,30.45,10.0,SSE,9.2,-,N/A,,Clear,160,2014-01-20 14:53:00
7:53 AM,25.0,19.9,81,30.46,10.0,South,8.1,-,N/A,,Clear,170,2014-01-20 15:53:00
8:53 AM,28.9,19.9,69,30.46,10.0,South,9.2,-,N/A,,Clear,170,2014-01-20 16:53:00
9:53 AM,30.9,21.0,67,30.31,10.0,South,9.2,-,N/A,,Clear,180,2014-01-20 17:53:00
10:53 AM,32.0,19.9,61,30.31,10.0,South,8.1,-,N/A,,Clear,170,2014-01-20 18:53:00
11:53 AM,33.1,21.0,61,30.29,10.0,South,8.1,-,N/A,,Clear,170,2014-01-20 19:53:00
12:53 PM,35.1,19.9,54,30.28,10.0,Variable,3.5,-,N/A,,Clear,0,2014-01-20 20:53:00
1:53 PM,36.0,17.1,46,30.28,10.0,WNW,4.6,-,N/A,,Clear,290,2014-01-20 21:53:00
2:53 PM,36.0,19.0,50,30.28,10.0,Calm,Calm,-,N/A,,Clear,0,2014-01-20 22:53:00
3:53 PM,34.0,19.9,56,30.30,10.0,WSW,3.5,-,N/A,,Clear,240,2014-01-20 23:53:00
4:53 PM,32.0,19.0,59,30.44,10.0,SSW,4.6,-,N/A,,Clear,200,2014-01-21 00:53:00
5:53 PM,33.1,19.9,59,30.43,10.0,SSW,5.8,-,N/A,,Clear,200,2014-01-21 01:53:00
6:53 PM,34.0,19.0,54,30.44,10.0,SSW,5.8,-,N/A,,Clear,200,2014-01-21 02:53:00
7:53 PM,34.0,16.0,48,30.29,10.0,SW,6.9,-,N/A,,Clear,220,2014-01-21 03:53:00
8:53 PM,34.0,19.0,54,30.27,10.0,WSW,5.8,-,N/A,,Clear,240,2014-01-21 04:53:00
9:53 PM,32.0,21.0,64,30.27,10.0,Variable,3.5,-,N/A,,Clear,0,2014-01-21 05:53:00
10:53 PM,33.1,23.0,66,30.27,10.0,SW,9.2,-,N/A,,Clear,230,2014-01-21 06:53:00
11:53 PM,33.1,24.1,70,30.26,10.0,WSW,8.1,-,N/A,,Clear,240,2014-01-21 07:53:00